[[{"header":{"parameterUnit":"m.s-1","parameterCategory":1,"la1":30.2991,"la2":30.254,"lo1":-89.0895,"lo2":-89.0444,"dy":0.0017,"dx":0.0017,"nx":28,"ny":28,"refTime":"2024-07-04T03:00:00:Z","depth":0,"parameterNumber":2,"parameterNumberName":"U-component_of_WINDS"},"data":[0,0,0,0,0,0,0,0,0,0,0,0,0,0,0,0,0,0,0,0,0,0,0,0,0,0,0,0,0,0,0,0,0,0,0,0,0,0,0,0,0,0,0,0,0,0,0,0,0,0,0,0,0,0,0,0,0,0,-0.1501,-0.1501,0,-0.1516,-0.1517,-0.1517,-0.1584,-0.1585,-0.1587,-0.1588,-0.1599,-0.1598,-0.1597,0,0,0,0,0,0,0,0,0,0,0,0,0,-0.1527,-0.1526,-0.1501,-0.1501,-0.1501,-0.1516,-0.1517,-0.1517,-0.1583,-0.1585,-0.1587,-0.1589,-0.16,-0.1598,-0.1597,0,0,0,0,0,0,0,0,0,0,0,0,0,-0.1526,-0.1525,-0.1501,-0.1537,-0.154,-0.1516,-0.1517,-0.1517,-0.1583,-0.1585,-0.1588,-0.159,-0.16,-0.1599,-0.1597,-0.1539,0,0,-0.1591,-0.1591,0,0,0,0,0,0,0,0,-0.1526,-0.1525,-0.1531,-0.1534,-0.1538,-0.1551,-0.153,-0.1524,-0.1582,-0.1566,-0.1588,-0.1591,-0.1581,-0.1581,-0.1578,-0.1539,-0.154,-0.1591,-0.159,-0.1589,-0.1589,0,0,0,0,0,0,0,-0.1526,-0.1525,-0.1507,-0.1531,-0.1535,-0.1551,-0.1553,-0.1529,-0.156,-0.1568,-0.1573,-0.1574,-0.1583,-0.158,-0.1579,-0.154,-0.1591,-0.159,-0.1589,-0.1588,-0.1454,-0.1452,0,0,0,0,0,0,-0.1521,-0.1524,-0.1506,-0.1507,-0.1538,-0.1548,-0.1551,-0.1544,-0.1561,-0.1566,-0.1572,-0.1577,-0.1582,-0.1581,-0.158,-0.1513,-0.1589,-0.1588,-0.1587,-0.1457,-0.1454,-0.1451,0,0,0,0,0,0,-0.1522,-0.1519,-0.1506,-0.1517,-0.1517,-0.1546,-0.1537,-0.1543,-0.154,-0.1564,-0.1569,-0.1563,-0.1584,-0.1582,-0.1549,-0.1514,-0.1587,-0.1585,-0.146,-0.1456,-0.1452,-0.1379,0,0,0,0,0,0,-0.1522,-0.1519,-0.1497,-0.1516,-0.1516,-0.1475,-0.1535,-0.1542,-0.1537,-0.1544,-0.1557,-0.1561,-0.1585,-0.1551,-0.1547,-0.1513,-0.1584,-0.1463,-0.1458,-0.1454,-0.1384,-0.1373,-0.1363,0,0,0,0,0,-0.1523,-0.1475,-0.1496,-0.1494,-0.149,-0.1473,-0.1473,-0.1503,-0.1534,-0.1513,-0.1528,-0.1561,-0.1519,-0.1547,-0.1543,-0.1508,-0.1465,-0.1459,-0.1454,-0.1389,-0.1375,-0.1363,0,0,0,0,0,0,-0.1449,-0.1478,-0.1502,-0.1459,-0.1463,-0.1485,-0.1458,-0.1487,-0.1481,-0.1488,-0.1524,-0.1527,-0.1488,-0.1495,-0.1526,-0.1453,-0.1498,-0.1491,-0.145,-0.1437,-0.1426,-0.1425,-0.1583,0,0,0,0,0,-0.1428,-0.1414,-0.1439,-0.1399,-0.14,-0.1428,-0.1422,-0.1445,-0.1451,-0.1452,-0.1466,-0.1468,-0.1456,-0.1447,-0.1437,-0.1386,-0.139,-0.136,-0.135,-0.1341,-0.1334,-0.1308,-0.1295,-0.1433,-0.1433,-0.1433,0,0,-0.1384,-0.1398,-0.1386,-0.1384,-0.139,-0.1373,-0.1429,-0.1409,-0.1396,-0.1449,-0.1418,-0.1428,-0.1434,-0.1392,-0.1374,-0.1396,-0.1298,-0.1334,-0.1327,-0.1325,-0.1301,-0.1288,-0.1277,-0.1429,-0.1429,-0.143,0,0,-0.1295,-0.1305,-0.1272,-0.1278,-0.1288,-0.1307,-0.13,-0.1317,-0.1326,-0.1297,-0.1336,-0.1321,-0.1299,-0.1302,-0.1301,-0.1215,-0.1244,-0.1211,-0.1154,-0.1129,-0.1118,-0.1108,-0.1077,-0.1066,-0.1204,-0.1204,-0.1204,0,-0.1239,-0.1216,-0.1252,-0.1229,-0.1227,-0.1276,-0.1244,-0.1247,-0.1252,-0.1249,-0.1275,-0.1249,-0.1256,-0.1216,-0.1195,-0.1192,-0.1184,-0.1208,-0.1117,-0.1108,-0.1099,-0.107,-0.1058,-0.12,-0.12,-0.1201,-0.1201,0,-0.1146,-0.1129,-0.1102,-0.1108,-0.1103,-0.1075,-0.1106,-0.1096,-0.112,-0.1137,-0.1106,-0.1118,-0.1111,-0.1103,-0.1126,-0.1066,-0.108,-0.1111,-0.1156,-0.1082,-0.1055,-0.1044,-0.1194,-0.1195,-0.1196,-0.1197,0,0,-0.1009,-0.1037,-0.1026,-0.1029,-0.1045,-0.1032,-0.1006,-0.1002,-0.0993,-0.0995,-0.0974,-0.0955,-0.0985,-0.0983,-0.1007,-0.0984,-0.0915,-0.1018,-0.1019,-0.0998,-0.0849,-0.0825,-0.0812,-0.0936,-0.0934,-0.0932,-0.0849,0,-0.0924,-0.0883,-0.0915,-0.0868,-0.0853,-0.0901,-0.0879,-0.0885,-0.0901,-0.089,-0.0906,-0.0892,-0.0933,-0.0932,-0.0912,-0.0928,-0.0886,-0.0934,-0.0915,-0.0914,-0.0911,-0.0798,-0.0772,-0.0692,-0.0839,-0.0837,-0.0836,0,-0.0818,-0.0818,-0.077,-0.0789,-0.0784,-0.0764,-0.0763,-0.0752,-0.076,-0.0773,-0.0772,-0.0802,-0.0778,-0.0823,-0.079,-0.0822,-0.0817,-0.0823,-0.0821,-0.0819,-0.0869,-0.0792,-0.0668,-0.0655,-0.0819,-0.0821,-0.0822,0,-0.0723,-0.071,-0.068,-0.0681,-0.0703,-0.0688,-0.0696,-0.0707,-0.0703,-0.0702,-0.0699,-0.0694,-0.0691,-0.0687,-0.0714,-0.0745,-0.0677,-0.0725,-0.0686,-0.0685,-0.0668,-0.0668,-0.054,-0.0666,-0.0666,-0.0666,-0.0667,0,-0.0623,-0.0592,-0.0637,-0.0618,-0.0585,-0.0622,-0.0587,-0.06,-0.061,-0.0594,-0.0635,-0.0619,-0.0657,-0.0645,-0.0666,-0.0635,-0.0633,-0.0642,-0.0648,-0.0638,-0.0637,-0.0633,-0.0639,-0.0663,-0.0664,-0.0665,-0.0665,0,-0.051,-0.0539,-0.0509,-0.0534,-0.0539,-0.0513,-0.0533,-0.0516,-0.0536,-0.0515,-0.0512,-0.0541,-0.0529,-0.0557,-0.0548,-0.0563,-0.0518,-0.0533,-0.0515,-0.0519,-0.0479,-0.0482,-0.0343,-0.0326,-0.0464,-0.0462,-0.0461,0,-0.0444,-0.0421,-0.0444,-0.0437,-0.0443,-0.0431,-0.0428,-0.0464,-0.0459,-0.0467,-0.0449,-0.0441,-0.0436,-0.0414,-0.0433,-0.0427,-0.0441,-0.0393,-0.044,-0.0431,-0.044,-0.044,-0.0438,-0.0383,-0.0381,-0.038,-0.0379,0,-0.0324,-0.034,-0.0334,-0.0333,-0.0328,-0.0328,-0.0332,-0.0324,-0.0363,-0.0354,-0.0343,-0.0339,-0.0332,-0.0322,-0.0321,-0.0328,-0.0359,-0.0364,-0.0355,-0.0343,-0.0333,-0.0337,-0.0488,-0.0367,-0.0368,-0.0369,-0.0369,-0.037,-0.0232,-0.0214,-0.0227,-0.0219,-0.0226,-0.0229,-0.0215,-0.0233,-0.0225,-0.0222,-0.0244,-0.0228,-0.0238,-0.024,-0.0244,-0.0231,-0.0253,-0.0239,-0.0235,-0.0231,-0.0224,-0.0337,-0.0231,-0.0232,-0.0232,-0.0232,-0.0233,0,-0.0113,-0.0125,-0.0117,-0.0122,-0.0115,-0.0148,-0.0154,-0.0146,-0.0132,-0.0139,-0.0134,-0.0121,-0.0113,-0.0133,-0.0127,-0.0114,-0.0128,-0.0111,-0.0111,-0.0112,-0.0206,-0.0214,-0.0099,-0.0099,-0.0099,-0.0099,-0.0099,-0.0099,-0.005,-0.0022,-0.004,-0.0016,-0.0027,-0.0013,-0.0014,-0.0016,-0.0023,-0.0007,-0.0001,-0.0015,-0.0027,-0.0023,-0.0017,-0.0023,-0.0018,0.0004,-0.0007,-0.0093,-0.0106,-0.0118,-0.0126,0.0005,0.0005,0.0085,0.0086,0.0087]},{"header":{"parameterUnit":"m.s-1","parameterCategory":1,"la1":30.2991,"la2":30.254,"lo1":-89.0895,"lo2":-89.0444,"dy":0.0017,"dx":0.0017,"nx":28,"ny":28,"refTime":"2024-07-04T03:00:00:Z","depth":0,"parameterNumber":3,"parameterNumberName":"V-component_of_WINDS"},"data":[0,0,0,0,0,0,0,0,0,0,0,0,0,0,0,0,0,0,0,0,0,0,0,0,0,0,0,0,0,0,0,0,0,0,0,0,0,0,0,0,0,0,0,0,0,0,0,0,0,0,0,0,0,0,0,0,0,0,3.9966,3.9965,0,3.9917,3.9916,3.9916,3.9852,3.9851,3.9849,3.9848,3.9797,3.9797,3.9797,0,0,0,0,0,0,0,0,0,0,0,0,0,4.0003,4.0002,3.9966,3.9965,3.9964,3.9917,3.9916,3.9916,3.9852,3.985,3.9849,3.9848,3.9797,3.9797,3.9797,0,0,0,0,0,0,0,0,0,0,0,0,0,3.9974,4.0002,3.9966,3.9927,3.9923,3.9917,3.9916,3.9915,3.9852,3.985,3.9849,3.9847,3.9798,3.9797,3.9797,3.9825,0,0,3.9795,3.9795,0,0,0,0,0,0,0,0,3.9975,3.9972,3.9933,3.993,3.9925,3.9889,3.991,3.9885,3.9852,3.9879,3.9848,3.9847,3.9829,3.9826,3.982,3.9822,3.982,3.9795,3.9794,3.9794,3.9794,0,0,0,0,0,0,0,3.9977,3.9974,3.9946,3.9933,3.9928,3.9912,3.9906,3.9905,3.9863,3.9876,3.9872,3.9867,3.9826,3.9821,3.9818,3.9819,3.9795,3.9794,3.9794,3.9794,3.9842,3.9843,0,0,0,0,0,0,3.9985,3.9976,3.9948,3.9945,3.9947,3.9912,3.9906,3.9902,3.9863,3.9856,3.9868,3.9864,3.9822,3.9819,3.9816,3.9846,3.9794,3.9794,3.9793,3.984,3.9842,3.9844,0,0,0,0,0,0,3.9986,3.9983,3.995,3.9959,3.9954,3.9913,3.991,3.9902,3.9896,3.9857,3.9849,3.987,3.9821,3.9817,3.9823,3.9843,3.9793,3.9793,3.9838,3.9841,3.9843,3.9906,0,0,0,0,0,0,3.9988,3.9984,3.9994,3.996,3.9953,3.9958,3.9911,3.9902,3.9895,3.9889,3.9857,3.985,3.982,3.9824,3.9822,3.9842,3.9792,3.9836,3.9839,3.9842,3.9902,3.9911,3.9918,0,0,0,0,0,3.9989,4.0014,3.9995,3.9992,3.9966,3.9959,3.9955,3.992,3.9897,3.9907,3.9882,3.9851,3.9842,3.9825,3.9823,3.9842,3.9835,3.9838,3.9842,3.9899,3.9909,3.9918,0,0,0,0,0,0,4.0051,4.0009,3.9987,4.0002,3.9985,3.9948,3.9959,3.9932,3.9921,3.9916,3.9873,3.9866,3.9877,3.986,3.9843,3.9867,3.9834,3.9837,3.9878,3.9887,3.9895,3.9898,3.9792,0,0,0,0,0,4.0067,4.0066,4.0028,4.0045,4.0037,4.0,3.9996,3.9971,3.9951,3.9943,3.9918,3.99,3.9893,3.9889,3.9881,3.99,3.9892,3.9912,3.992,3.9927,3.9929,3.9938,3.9947,3.9856,3.9856,3.9856,0,0,4.0099,4.0075,4.0077,4.0057,4.004,4.0039,3.9994,3.9995,3.9994,3.9943,3.9947,3.9929,3.9905,3.9918,3.9922,3.9904,3.9953,3.9931,3.9937,3.9936,3.9943,3.9951,3.9959,3.9858,3.9858,3.9857,0,0,4.0156,4.0139,4.015,4.0135,4.0111,4.0086,4.0089,4.0057,4.0043,4.0047,4.0008,4.0006,3.9995,3.998,3.9971,4.0024,3.9994,4.0022,4.0063,4.0071,4.0079,4.0085,4.0103,4.011,4.0026,4.0026,4.0026,0,4.0198,4.0196,4.0159,4.0163,4.0155,4.0109,4.012,4.0107,4.0082,4.0077,4.0058,4.0043,4.0024,4.0033,4.0046,4.004,4.0042,4.0025,4.0081,4.0086,4.0092,4.0108,4.0115,4.0029,4.0029,4.0029,4.0028,0,4.0249,4.0248,4.026,4.0237,4.023,4.0238,4.0202,4.02,4.0176,4.0153,4.0157,4.0134,4.0119,4.012,4.0096,4.0125,4.0114,4.0089,4.0054,4.0104,4.0119,4.0126,4.0034,4.0033,4.0032,4.0031,0,0,4.0342,4.03,4.0305,4.0294,4.0264,4.0263,4.0268,4.0255,4.0254,4.0238,4.0241,4.0233,4.0209,4.0199,4.0173,4.0181,4.0224,4.0154,4.0153,4.0167,4.0254,4.0273,4.0281,4.0205,4.0206,4.0207,4.0256,0,4.0393,4.04,4.0368,4.0383,4.0381,4.0339,4.0344,4.0326,4.0306,4.0301,4.0278,4.0273,4.0242,4.0236,4.0242,4.0218,4.0241,4.0214,4.0207,4.0207,4.0213,4.0289,4.0309,4.0356,4.0261,4.0262,4.0263,0,4.0453,4.0441,4.0456,4.0426,4.0425,4.0429,4.0415,4.0411,4.0391,4.0375,4.0364,4.0335,4.0338,4.0306,4.0309,4.0292,4.0287,4.0275,4.0276,4.0273,4.0237,4.0287,4.037,4.0377,4.0272,4.0271,4.0271,0,4.0519,4.0506,4.0514,4.0506,4.0472,4.0476,4.0462,4.044,4.0434,4.0421,4.0417,4.0405,4.0398,4.0389,4.0357,4.0337,4.0364,4.0329,4.035,4.0351,4.0357,4.0357,4.0439,4.0356,4.0356,4.0356,4.0356,0,4.0578,4.0589,4.0543,4.0547,4.0558,4.0521,4.0533,4.0515,4.0496,4.0496,4.0459,4.046,4.0418,4.0414,4.0389,4.0395,4.0393,4.038,4.0373,4.0382,4.0384,4.0378,4.0373,4.0358,4.0357,4.0357,4.0357,0,4.0653,4.0622,4.0628,4.0595,4.0587,4.0597,4.0569,4.0571,4.0549,4.055,4.0548,4.0513,4.0506,4.0474,4.046,4.0443,4.0458,4.0444,4.0465,4.046,4.0483,4.0481,4.0563,4.0572,4.0484,4.0485,4.0486,0,4.0692,4.0699,4.0668,4.0665,4.0653,4.065,4.0644,4.0608,4.0603,4.0581,4.0586,4.0577,4.0568,4.0559,4.0532,4.0521,4.0507,4.0537,4.0505,4.0515,4.0506,4.0506,4.0506,4.0543,4.0544,4.0545,4.0546,0,4.0765,4.075,4.0742,4.073,4.0724,4.0713,4.07,4.07,4.066,4.0657,4.065,4.0643,4.0629,4.062,4.0605,4.059,4.0561,4.0557,4.0561,4.057,4.0581,4.0574,4.0482,4.0554,4.0554,4.0553,4.0552,4.0552,4.0822,4.0826,4.0805,4.0799,4.0785,4.0773,4.0774,4.0752,4.0746,4.0732,4.0712,4.0708,4.0687,4.0664,4.0652,4.0648,4.0631,4.0638,4.0639,4.0641,4.0646,4.0583,4.0645,4.0645,4.0644,4.0644,4.0644,0,4.0892,4.0876,4.0871,4.0853,4.0848,4.0823,4.0807,4.0804,4.0801,4.0785,4.0777,4.0769,4.0761,4.0733,4.0722,4.0724,4.0711,4.0722,4.0721,4.0718,4.0661,4.0658,4.0733,4.0733,4.0733,4.0733,4.0733,4.0733,4.0928,4.0934,4.0916,4.0916,4.09,4.0896,4.0889,4.0878,4.0865,4.0858,4.0851,4.0834,4.0813,4.08,4.0791,4.0783,4.078,4.0796,4.0784,4.0731,4.0722,4.0714,4.0711,4.0796,4.0796,4.084,4.0841,4.0841]}]]